Time,TemperatureF,DewpointF,PressureIn,WindDirection,WindDirectionDegrees,WindSpeedMPH,WindSpeedGustMPH,Humidity,HourlyPrecipIn,Conditions,Clouds,dailyrainin,SoftwareType,DateUTC
2013-03-02 00:01:00,26.0,22.0,30.18,NNE,17,4.0,11.0,83,0.00,,,0.00,,2013-03-02 06:01:00,
2013-03-02 00:11:00,26.0,22.0,30.18,NNE,17,4.0,11.0,83,0.00,,,0.00,,2013-03-02 06:11:00,
2013-03-02 00:21:00,26.0,22.0,30.19,NNW,346,5.0,11.0,84,0.00,,,0.00,,2013-03-02 06:21:00,
2013-03-02 00:31:00,26.0,22.0,30.18,North,355,4.0,12.0,84,0.00,,,0.00,,2013-03-02 06:31:00,
2013-03-02 00:42:00,26.0,22.0,30.18,North,355,4.0,12.0,84,0.00,,,0.00,,2013-03-02 06:42:00,
2013-03-02 00:51:00,26.0,22.0,30.19,North,5,6.0,10.0,84,0.00,,,0.00,,2013-03-02 06:51:00,
2013-03-02 01:01:00,26.0,22.0,30.18,NNE,28,7.0,11.0,83,0.00,,,0.00,,2013-03-02 07:01:00,
2013-03-02 01:11:00,26.0,22.0,30.18,NNE,28,7.0,11.0,83,0.00,,,0.00,,2013-03-02 07:11:00,
2013-03-02 01:21:00,26.0,22.0,30.18,NNE,19,6.0,13.0,83,0.00,,,0.00,,2013-03-02 07:21:00,
2013-03-02 01:32:00,26.0,22.0,30.18,NNE,17,5.0,10.0,84,0.00,,,0.00,,2013-03-02 07:32:00,
2013-03-02 01:42:00,26.0,22.0,30.18,NNE,17,5.0,10.0,84,0.00,,,0.00,,2013-03-02 07:42:00,
2013-03-02 01:51:00,26.0,22.0,30.18,North,355,5.0,10.0,83,0.00,,,0.00,,2013-03-02 07:51:00,
2013-03-02 02:01:00,26.0,22.0,30.18,North,11,3.0,8.0,84,0.00,,,0.00,,2013-03-02 08:01:00,
2013-03-02 02:11:00,26.0,22.0,30.18,North,11,3.0,8.0,84,0.00,,,0.00,,2013-03-02 08:11:00,
2013-03-02 02:21:00,26.0,22.0,30.18,North,351,4.0,8.0,85,0.00,,,0.00,,2013-03-02 08:21:00,
2013-03-02 02:32:00,26.0,22.0,30.17,North,11,6.0,10.0,84,0.00,,,0.00,,2013-03-02 08:32:00,
2013-03-02 02:42:00,26.0,22.0,30.17,North,11,6.0,10.0,84,0.00,,,0.00,,2013-03-02 08:42:00,
2013-03-02 02:52:00,26.0,22.0,30.17,North,355,3.0,8.0,85,0.00,,,0.00,,2013-03-02 08:52:00,
2013-03-02 03:02:00,26.0,22.0,30.17,North,355,5.0,10.0,85,0.00,,,0.00,,2013-03-02 09:02:00,
2013-03-02 03:11:00,26.0,22.0,30.17,North,355,5.0,10.0,85,0.00,,,0.00,,2013-03-02 09:11:00,
2013-03-02 03:21:00,26.0,22.0,30.16,NNE,17,2.0,7.0,86,0.00,,,0.00,,2013-03-02 09:21:00,
2013-03-02 03:32:00,26.0,22.0,30.16,North,5,2.0,8.0,86,0.00,,,0.00,,2013-03-02 09:32:00,
2013-03-02 03:42:00,26.0,22.0,30.16,North,5,2.0,8.0,86,0.00,,,0.00,,2013-03-02 09:42:00,
2013-03-02 03:51:00,25.0,21.0,30.16,NW,316,1.0,7.0,86,0.00,,,0.00,,2013-03-02 09:51:00,
2013-03-02 04:01:00,25.0,22.0,30.16,NNW,332,2.0,7.0,87,0.00,,,0.00,,2013-03-02 10:01:00,
2013-03-02 04:15:00,25.0,22.0,30.16,NNW,332,2.0,7.0,87,0.00,,,0.00,,2013-03-02 10:15:00,
2013-03-02 04:22:00,25.0,22.0,30.17,North,11,2.0,7.0,87,0.00,,,0.00,,2013-03-02 10:22:00,
2013-03-02 04:32:00,25.0,22.0,30.16,NNE,13,3.0,7.0,87,0.00,,,0.00,,2013-03-02 10:32:00,
2013-03-02 04:42:00,25.0,22.0,30.16,NNE,13,3.0,7.0,87,0.00,,,0.00,,2013-03-02 10:42:00,
2013-03-02 04:52:00,25.0,22.0,30.16,NNE,13,3.0,8.0,87,0.00,,,0.00,,2013-03-02 10:52:00,
2013-03-02 05:01:00,25.0,22.0,30.16,North,5,4.0,8.0,87,0.00,,,0.00,,2013-03-02 11:01:00,
2013-03-02 05:11:00,25.0,22.0,30.16,North,5,4.0,8.0,87,0.00,,,0.00,,2013-03-02 11:11:00,
2013-03-02 05:21:00,26.0,23.0,30.17,NNE,16,4.0,8.0,87,0.00,,,0.00,,2013-03-02 11:21:00,
2013-03-02 05:32:00,25.0,22.0,30.17,NW,313,2.0,4.0,88,0.00,,,0.00,,2013-03-02 11:32:00,
2013-03-02 05:42:00,25.0,22.0,30.17,NW,313,2.0,4.0,88,0.00,,,0.00,,2013-03-02 11:42:00,
2013-03-02 05:52:00,25.0,22.0,30.17,WNW,294,3.0,5.0,88,0.00,,,0.00,,2013-03-02 11:52:00,
2013-03-02 06:02:00,25.0,22.0,30.17,NW,312,2.0,7.0,88,0.00,,,0.00,,2013-03-02 12:02:00,
2013-03-02 06:11:00,25.0,22.0,30.17,NW,312,2.0,7.0,88,0.00,,,0.00,,2013-03-02 12:11:00,
2013-03-02 06:21:00,25.0,22.0,30.18,WNW,302,5.0,9.0,88,0.00,,,0.00,,2013-03-02 12:21:00,
2013-03-02 06:33:00,25.0,22.0,30.18,West,279,4.0,8.0,88,0.00,,,0.00,,2013-03-02 12:33:00,
2013-03-02 06:43:00,25.0,22.0,30.18,West,279,4.0,8.0,88,0.00,,,0.00,,2013-03-02 12:43:00,
2013-03-02 06:53:00,24.0,21.0,30.18,WNW,284,4.0,7.0,88,0.00,,,0.00,,2013-03-02 12:53:00,
2013-03-02 07:01:00,24.0,21.0,30.18,West,274,6.0,9.0,87,0.00,,,0.00,,2013-03-02 13:01:00,
2013-03-02 07:11:00,24.0,21.0,30.18,West,274,6.0,9.0,87,0.00,,,0.00,,2013-03-02 13:11:00,
2013-03-02 07:22:00,24.0,21.0,30.19,NNW,348,4.0,8.0,87,0.00,,,0.00,,2013-03-02 13:22:00,
2013-03-02 07:32:00,23.0,20.0,30.19,WNW,302,4.0,8.0,87,0.00,,,0.00,,2013-03-02 13:32:00,
2013-03-02 07:42:00,23.0,20.0,30.19,WNW,302,4.0,8.0,87,0.00,,,0.00,,2013-03-02 13:42:00,
2013-03-02 07:52:00,23.0,20.0,30.20,WNW,290,4.0,8.0,87,0.00,,,0.00,,2013-03-02 13:52:00,
2013-03-02 08:01:00,23.0,20.0,30.20,NW,304,4.0,8.0,87,0.00,,,0.00,,2013-03-02 14:01:00,
2013-03-02 08:11:00,23.0,20.0,30.20,NW,304,4.0,8.0,87,0.00,,,0.00,,2013-03-02 14:11:00,
2013-03-02 08:21:00,23.0,20.0,30.21,NNW,338,2.0,7.0,87,0.00,,,0.00,,2013-03-02 14:21:00,
2013-03-02 08:32:00,24.0,20.0,30.21,NNW,330,2.0,6.0,86,0.00,,,0.00,,2013-03-02 14:32:00,
2013-03-02 08:42:00,24.0,20.0,30.21,NNW,330,2.0,6.0,86,0.00,,,0.00,,2013-03-02 14:42:00,
2013-03-02 08:52:00,24.0,20.0,30.20,WNW,292,3.0,7.0,85,0.00,,,0.00,,2013-03-02 14:52:00,
2013-03-02 09:02:00,24.0,20.0,30.20,NW,313,2.0,8.0,86,0.00,,,0.00,,2013-03-02 15:02:00,
2013-03-02 09:11:00,24.0,20.0,30.20,NW,313,2.0,8.0,86,0.00,,,0.00,,2013-03-02 15:11:00,
2013-03-02 09:21:00,25.0,21.0,30.20,NW,315,2.0,9.0,85,0.00,,,0.00,,2013-03-02 15:21:00,
2013-03-02 09:32:00,25.0,21.0,30.21,North,355,3.0,8.0,84,0.00,,,0.00,,2013-03-02 15:32:00,
2013-03-02 09:42:00,25.0,21.0,30.21,North,355,3.0,8.0,84,0.00,,,0.00,,2013-03-02 15:42:00,
2013-03-02 09:52:00,26.0,22.0,30.21,NW,311,3.0,7.0,83,0.00,,,0.00,,2013-03-02 15:52:00,
2013-03-02 10:01:00,26.0,22.0,30.21,West,277,3.0,8.0,83,0.00,,,0.00,,2013-03-02 16:01:00,
2013-03-02 10:11:00,26.0,22.0,30.21,West,277,3.0,8.0,83,0.00,,,0.00,,2013-03-02 16:11:00,
2013-03-02 10:21:00,26.0,21.0,30.21,WNW,292,5.0,10.0,82,0.00,,,0.00,,2013-03-02 16:21:00,
2013-03-02 10:32:00,27.0,22.0,30.21,WNW,298,4.0,7.0,82,0.00,,,0.00,,2013-03-02 16:32:00,
2013-03-02 10:42:00,27.0,22.0,30.21,WNW,298,4.0,7.0,82,0.00,,,0.00,,2013-03-02 16:42:00,
2013-03-02 10:51:00,27.0,22.0,30.21,NNE,22,2.0,10.0,82,0.00,,,0.00,,2013-03-02 16:51:00,
2013-03-02 11:01:00,28.0,23.0,30.22,North,355,3.0,10.0,81,0.00,,,0.00,,2013-03-02 17:01:00,
2013-03-02 11:11:00,28.0,23.0,30.22,North,355,3.0,10.0,81,0.00,,,0.00,,2013-03-02 17:11:00,
2013-03-02 11:21:00,28.0,22.0,30.21,NNE,31,3.0,11.0,79,0.00,,,0.00,,2013-03-02 17:21:00,
2013-03-02 11:32:00,30.0,24.0,30.22,NNE,24,4.0,7.0,78,0.00,,,0.00,,2013-03-02 17:32:00,
2013-03-02 11:42:00,30.0,24.0,30.22,NNE,24,4.0,7.0,78,0.00,,,0.00,,2013-03-02 17:42:00,
2013-03-02 11:52:00,29.0,23.0,30.21,WNW,282,5.0,12.0,77,0.00,,,0.00,,2013-03-02 17:52:00,
2013-03-02 12:02:00,30.0,24.0,30.21,WNW,290,4.0,10.0,77,0.00,,,0.00,,2013-03-02 18:02:00,
2013-03-02 12:11:00,30.0,24.0,30.21,WNW,290,4.0,10.0,77,0.00,,,0.00,,2013-03-02 18:11:00,
2013-03-02 12:22:00,30.0,23.0,30.21,NW,315,5.0,11.0,75,0.00,,,0.00,,2013-03-02 18:22:00,
2013-03-02 12:32:00,30.0,24.0,30.20,North,351,3.0,10.0,77,0.00,,,0.00,,2013-03-02 18:32:00,
2013-03-02 12:42:00,30.0,24.0,30.20,North,351,3.0,10.0,77,0.00,,,0.00,,2013-03-02 18:42:00,
2013-03-02 12:52:00,31.0,24.0,30.20,NNE,14,6.0,11.0,74,0.00,,,0.00,,2013-03-02 18:52:00,
2013-03-02 13:01:00,31.0,24.0,30.19,WNW,289,5.0,11.0,75,0.00,,,0.00,,2013-03-02 19:01:00,
2013-03-02 13:11:00,31.0,24.0,30.19,WNW,289,5.0,11.0,75,0.00,,,0.00,,2013-03-02 19:11:00,
2013-03-02 13:21:00,30.0,23.0,30.19,WNW,288,8.0,13.0,75,0.00,,,0.00,,2013-03-02 19:21:00,
2013-03-02 13:32:00,30.0,23.0,30.19,NNW,339,5.0,10.0,76,0.00,,,0.00,,2013-03-02 19:32:00,
2013-03-02 13:42:00,30.0,23.0,30.19,NNW,339,5.0,10.0,76,0.00,,,0.00,,2013-03-02 19:42:00,
2013-03-02 13:52:00,30.0,23.0,30.19,NNW,339,5.0,10.0,76,0.00,,,0.00,,2013-03-02 19:52:00,
2013-03-02 14:01:00,30.0,23.0,30.19,NNW,330,5.0,9.0,75,0.00,,,0.00,,2013-03-02 20:01:00,
2013-03-02 14:11:00,30.0,23.0,30.19,NNW,330,5.0,9.0,75,0.00,,,0.00,,2013-03-02 20:11:00,
2013-03-02 14:22:00,29.0,22.0,30.18,WNW,302,8.0,14.0,76,0.00,,,0.00,,2013-03-02 20:22:00,
2013-03-02 14:32:00,29.0,23.0,30.18,NW,317,5.0,13.0,77,0.00,,,0.00,,2013-03-02 20:32:00,
2013-03-02 14:42:00,29.0,23.0,30.18,NW,317,5.0,13.0,77,0.00,,,0.00,,2013-03-02 20:42:00,
2013-03-02 14:52:00,29.0,23.0,30.18,NW,309,4.0,11.0,78,0.00,,,0.00,,2013-03-02 20:52:00,
2013-03-02 15:02:00,29.0,23.0,30.18,WNW,286,8.0,13.0,78,0.00,,,0.00,,2013-03-02 21:02:00,
2013-03-02 15:11:00,29.0,23.0,30.18,WNW,286,8.0,13.0,78,0.00,,,0.00,,2013-03-02 21:11:00,
2013-03-02 15:22:00,29.0,23.0,30.18,WNW,287,8.0,12.0,78,0.00,,,0.00,,2013-03-02 21:22:00,
2013-03-02 15:32:00,29.0,23.0,30.18,WNW,287,8.0,12.0,78,0.00,,,0.00,,2013-03-02 21:32:00,
2013-03-02 15:42:00,29.0,23.0,30.18,WNW,287,8.0,12.0,78,0.00,,,0.00,,2013-03-02 21:42:00,
2013-03-02 15:52:00,28.0,21.0,30.18,WNW,288,9.0,13.0,76,0.00,,,0.00,,2013-03-02 21:52:00,
2013-03-02 16:02:00,29.0,23.0,30.18,WNW,289,7.0,13.0,77,0.00,,,0.00,,2013-03-02 22:02:00,
2013-03-02 16:11:00,29.0,23.0,30.18,WNW,289,7.0,13.0,77,0.00,,,0.00,,2013-03-02 22:11:00,
2013-03-02 16:22:00,29.0,21.0,30.18,West,280,8.0,13.0,73,0.00,,,0.00,,2013-03-02 22:22:00,
2013-03-02 16:32:00,29.0,21.0,30.18,West,281,3.0,8.0,73,0.00,,,0.00,,2013-03-02 22:32:00,
2013-03-02 16:42:00,29.0,21.0,30.18,West,281,3.0,8.0,73,0.00,,,0.00,,2013-03-02 22:42:00,
2013-03-02 16:51:00,28.0,20.0,30.18,NW,312,4.0,10.0,73,0.00,,,0.00,,2013-03-02 22:51:00,
2013-03-02 17:01:00,28.0,20.0,30.18,NW,305,3.0,8.0,73,0.00,,,0.00,,2013-03-02 23:01:00,
2013-03-02 17:11:00,28.0,20.0,30.19,NW,306,4.0,7.0,71,0.00,,,0.00,,2013-03-02 23:11:00,
2013-03-02 17:21:00,28.0,20.0,30.19,NW,306,4.0,7.0,71,0.00,,,0.00,,2013-03-02 23:21:00,
2013-03-02 17:32:00,27.0,18.0,30.19,NW,315,2.0,7.0,68,0.00,,,0.00,,2013-03-02 23:32:00,
2013-03-02 17:42:00,27.0,18.0,30.19,NW,315,2.0,7.0,68,0.00,,,0.00,,2013-03-02 23:42:00,
2013-03-02 17:52:00,26.0,19.0,30.19,WNW,294,5.0,7.0,74,0.00,,,0.00,,2013-03-02 23:52:00,
2013-03-02 18:02:00,25.0,19.0,30.20,WNW,301,7.0,11.0,78,0.00,,,0.00,,2013-03-03 00:02:00,
2013-03-02 18:11:00,25.0,19.0,30.20,WNW,301,7.0,11.0,78,0.00,,,0.00,,2013-03-03 00:11:00,
2013-03-02 18:22:00,24.0,18.0,30.20,WNW,287,6.0,10.0,78,0.00,,,0.00,,2013-03-03 00:22:00,
2013-03-02 18:32:00,24.0,19.0,30.20,WNW,289,5.0,8.0,80,0.00,,,0.00,,2013-03-03 00:32:00,
2013-03-02 18:42:00,24.0,19.0,30.20,WNW,289,5.0,8.0,80,0.00,,,0.00,,2013-03-03 00:42:00,
2013-03-02 18:52:00,23.0,18.0,30.20,WNW,298,4.0,8.0,81,0.00,,,0.00,,2013-03-03 00:52:00,
2013-03-02 19:01:00,23.0,18.0,30.20,WNW,296,3.0,6.0,82,0.00,,,0.00,,2013-03-03 01:01:00,
2013-03-02 19:11:00,23.0,18.0,30.20,WNW,296,3.0,6.0,82,0.00,,,0.00,,2013-03-03 01:11:00,
2013-03-02 19:21:00,22.0,18.0,30.20,NW,304,3.0,6.0,83,0.00,,,0.00,,2013-03-03 01:21:00,
2013-03-02 19:32:00,22.0,18.0,30.20,WNW,296,4.0,8.0,83,0.00,,,0.00,,2013-03-03 01:32:00,
2013-03-02 19:42:00,22.0,18.0,30.20,WNW,296,4.0,8.0,83,0.00,,,0.00,,2013-03-03 01:42:00,
2013-03-02 19:52:00,22.0,17.0,30.20,WNW,284,4.0,7.0,82,0.00,,,0.00,,2013-03-03 01:52:00,
2013-03-02 20:01:00,21.0,16.0,30.20,WNW,292,4.0,8.0,82,0.00,,,0.00,,2013-03-03 02:01:00,
2013-03-02 20:11:00,21.0,16.0,30.20,WNW,292,4.0,8.0,82,0.00,,,0.00,,2013-03-03 02:11:00,
2013-03-02 20:21:00,21.0,17.0,30.20,WNW,282,5.0,7.0,83,0.00,,,0.00,,2013-03-03 02:21:00,
2013-03-02 20:32:00,20.0,16.0,30.20,WNW,294,4.0,6.0,84,0.00,,,0.00,,2013-03-03 02:32:00,
2013-03-02 20:42:00,20.0,16.0,30.20,WNW,294,4.0,6.0,84,0.00,,,0.00,,2013-03-03 02:42:00,
2013-03-02 20:52:00,20.0,16.0,30.20,WNW,302,1.0,4.0,84,0.00,,,0.00,,2013-03-03 02:52:00,
2013-03-02 21:01:00,19.0,15.0,30.20,WNW,302,1.0,4.0,85,0.00,,,0.00,,2013-03-03 03:01:00,
2013-03-02 21:11:00,19.0,15.0,30.20,WNW,302,1.0,4.0,85,0.00,,,0.00,,2013-03-03 03:11:00,
2013-03-02 21:21:00,19.0,16.0,30.20,WNW,302,1.0,3.0,86,0.00,,,0.00,,2013-03-03 03:21:00,
2013-03-02 21:31:00,19.0,15.0,30.20,WNW,302,2.0,5.0,85,0.00,,,0.00,,2013-03-03 03:31:00,
2013-03-02 21:42:00,19.0,15.0,30.20,WNW,302,2.0,5.0,85,0.00,,,0.00,,2013-03-03 03:42:00,
2013-03-02 21:51:00,19.0,15.0,30.20,WNW,296,3.0,5.0,84,0.00,,,0.00,,2013-03-03 03:51:00,
2013-03-02 22:01:00,18.0,14.0,30.21,WNW,294,3.0,5.0,85,0.00,,,0.00,,2013-03-03 04:01:00,
2013-03-02 22:11:00,18.0,14.0,30.21,WNW,294,3.0,5.0,85,0.00,,,0.00,,2013-03-03 04:11:00,
2013-03-02 22:21:00,18.0,15.0,30.21,WNW,301,1.0,5.0,86,0.00,,,0.00,,2013-03-03 04:21:00,
2013-03-02 22:32:00,18.0,15.0,30.21,WNW,301,1.0,5.0,86,0.00,,,0.00,,2013-03-03 04:32:00,
2013-03-02 22:42:00,18.0,15.0,30.21,WNW,301,1.0,5.0,86,0.00,,,0.00,,2013-03-03 04:42:00,
2013-03-02 22:51:00,17.0,14.0,30.21,WNW,298,1.0,4.0,87,0.00,,,0.00,,2013-03-03 04:51:00,
2013-03-02 23:02:00,17.0,14.0,30.21,WNW,298,1.0,4.0,86,0.00,,,0.00,,2013-03-03 05:02:00,
2013-03-02 23:11:00,17.0,14.0,30.21,WNW,298,1.0,4.0,86,0.00,,,0.00,,2013-03-03 05:11:00,
2013-03-02 23:22:00,17.0,14.0,30.20,WNW,298,0.0,2.0,86,0.00,,,0.00,,2013-03-03 05:22:00,
2013-03-02 23:32:00,17.0,14.0,30.20,WNW,298,0.0,2.0,86,0.00,,,0.00,,2013-03-03 05:32:00,
2013-03-02 23:42:00,17.0,14.0,30.20,WNW,298,0.0,2.0,86,0.00,,,0.00,,2013-03-03 05:42:00,
2013-03-02 23:52:00,17.0,14.0,30.19,NW,309,0.0,2.0,86,0.00,,,0.00,,2013-03-03 05:52:00,